Donation Index — Benelux Speedrunner Gathering - Online 3
Total: € 1 556,20 (81) — Max/Avg Donation: € 100,00/€ 19,21

NameAscDsc Time ReceivedAscDsc AmountAscDsc Comment
Fujisan 12/03/2020 11:16:19 +0000 € 15,00 Yes
Drumboooooooo! 12/02/2020 23:53:24 +0000 € 5,00 Yes
nicnacnic 11/22/2020 18:31:35 +0000 € 15,00 Yes
TempestMask1000 11/22/2020 18:11:22 +0000 € 1,00 Yes
Riekelt247 11/22/2020 17:39:18 +0000 € 5,00 Yes
van Laanen, Onno (Pikaplhu) 11/22/2020 16:34:25 +0000 € 15,00 No
TinyTim 11/22/2020 16:18:03 +0000 € 31,00 Yes
(Anonymous) 11/22/2020 15:52:28 +0000 € 5,00 Yes
Cwelf 11/22/2020 15:37:39 +0000 € 15,00 No
(Anonymous) 11/22/2020 15:03:10 +0000 € 4,20 Yes
Hunter, Jack (chalky) 11/22/2020 13:52:43 +0000 € 1,00 Yes
frost 11/22/2020 12:18:03 +0000 € 25,00 Yes
huds601 11/22/2020 12:17:59 +0000 € 5,00 Yes
MichaelK__ 11/22/2020 12:15:05 +0000 € 10,00 Yes
BigTheDave 11/22/2020 11:58:37 +0000 € 5,00 Yes
Thanamir 11/22/2020 11:52:52 +0000 € 10,00 Yes
Crrool0 11/22/2020 08:02:23 +0000 € 1,00 Yes
Ciphrius Kane 11/22/2020 07:16:31 +0000 € 10,00 Yes
Luna Manar 11/22/2020 07:14:16 +0000 € 15,00 Yes
Floha258 11/22/2020 06:44:05 +0000 € 1,00 Yes
MoD366 11/22/2020 05:22:59 +0000 € 40,00 Yes
(Anonymous) 11/22/2020 04:36:37 +0000 € 1,00 No
Alexander, Emily (abootoo) 11/22/2020 03:33:11 +0000 € 10,00 Yes
ToothpasteThy 11/22/2020 03:18:03 +0000 € 15,00 Yes
Ghost_Alchemist 11/22/2020 00:16:47 +0000 € 1,00 Yes
The Handy Crowbar 11/22/2020 00:04:19 +0000 € 10,00 Yes
Hansen, Scott 11/21/2020 23:51:26 +0000 € 3,00 Yes
MoD366 11/21/2020 22:18:18 +0000 € 5,00 Yes
MoD366 11/21/2020 22:09:21 +0000 € 10,00 Yes
Bobins 11/21/2020 21:57:22 +0000 € 20,00 Yes
Humbert 11/21/2020 21:39:20 +0000 € 25,00 Yes
(Anonymous) 11/21/2020 21:34:46 +0000 € 2,00 No
St-Louis, Mathieu (Mathieu St-Louis) 11/21/2020 19:43:10 +0000 € 50,00 Yes
Nelson, Jennifer (Jen the Bugt) 11/21/2020 18:54:36 +0000 € 5,00 Yes
CptGMV 11/21/2020 18:54:19 +0000 € 5,00 Yes
huds601 11/21/2020 18:54:10 +0000 € 15,00 Yes
YoungTunfisch 11/21/2020 18:50:07 +0000 € 10,00 Yes
Ramsey, Gavin (Gavin) 11/21/2020 18:47:23 +0000 € 5,00 Yes
ShedewFrist 11/21/2020 18:35:55 +0000 € 20,00 Yes
Mindez 11/21/2020 18:03:36 +0000 € 10,00 Yes
TinyTim 11/21/2020 18:02:08 +0000 € 10,00 Yes
Teej 11/21/2020 17:53:33 +0000 € 10,00 Yes
Sibbarp 11/21/2020 17:50:23 +0000 € 10,00 Yes
Ailis 11/21/2020 17:45:13 +0000 € 5,00 Yes
van der Made, Dylan (Jaxial) 11/21/2020 17:44:49 +0000 € 25,00 Yes
Kirthar 11/21/2020 17:17:26 +0000 € 20,00 Yes
Lashmar, Ben (Steelmorrigan) 11/21/2020 17:00:06 +0000 € 20,00 No
(Anonymous) 11/21/2020 16:56:59 +0000 € 15,00 Yes
Parker, Jonathan (LaserTrap_) 11/21/2020 16:42:13 +0000 € 10,00 Yes
Loxy 11/21/2020 16:22:21 +0000 € 5,00 Yes

|< 1 2 >|

Back to Main Index

Running on Django with Python
Python code by UraniumAnchor, SMK, and jdeng
CSS by Cool Matty